OZ1IEP-5 Weather Reports


Display with metric or nautical units.
time (UTC)temp
F
wind
direction
speed
MPH
gust
MPH
rain 1hr
in
rain 24hr
in
rain mn
in
humidity
%
barometer
mb
20210417150022 56 354 10.0 13.0 0.00 0.00 0.00 52 1022.9
20210417145225 56 0 7.0 13.0 0.00 0.00 0.00 53 1023.0
20210417144025 56 2 9.0 14.0 0.00 0.00 0.00 50 1023.0
20210417143019 57 353 6.0 12.0 0.00 0.00 0.00 51 1023.0
20210417142250 56 7 7.0 12.0 0.00 0.00 0.00 52 1023.0
20210417141039 56 2 7.0 12.0 0.00 0.00 0.00 51 1023.0
20210417140039 56 34 6.0 12.0 0.00 0.00 0.00 52 1023.0
20210417135244 56 30 7.0 12.0 0.00 0.00 0.00 53 1023.0
20210417134024 56 21 7.0 10.0 0.00 0.00 0.00 50 1023.1
20210417133030 56 27 4.0 9.0 0.00 0.00 0.00 51 1023.1
20210417132218 56 28 4.0 9.0 0.00 0.00 0.00 53 1023.1
20210417131023 56 8 4.0 10.0 0.00 0.00 0.00 53 1023.2
20210417130031 55 22 6.0 10.0 0.00 0.00 0.00 54 1023.3
20210417125137 55 3 7.0 12.0 0.00 0.00 0.00 52 1023.5
20210417124020 55 4 8.0 12.0 0.00 0.00 0.00 54 1023.4
20210417123023 55 10 7.0 10.0 0.00 0.00 0.00 54 1023.5
20210417122435 54 9 5.0 10.0 0.00 0.00 0.00 53 1023.5
20210417121023 54 5 6.0 10.0 0.00 0.00 0.00 54 1023.4
20210417115425 54 2 7.0 12.0 0.00 0.00 0.00 55 1023.4
20210417114018 54 5 7.0 12.0 0.00 0.00 0.00 53 1023.5
20210417113107 54 1 5.0 10.0 0.00 0.00 0.00 52 1023.4
20210417112341 54 32 8.0 12.0 0.00 0.00 0.00 52 1023.5
20210417111020 54 12 9.0 13.0 0.00 0.00 0.00 54 1023.4
20210417110036 54 16 7.0 12.0 0.00 0.00 0.00 53 1023.4
20210417105227 54 9 6.0 10.0 0.00 0.00 0.00 53 1023.4
20210417104025 54 30 5.0 9.0 0.00 0.00 0.00 54 1023.4
20210417103127 53 26 5.0 12.0 0.00 0.00 0.00 54 1023.5
20210417102149 52 11 5.0 13.0 0.00 0.00 0.00 57 1023.5
20210417101022 52 4 7.0 12.0 0.00 0.00 0.00 57 1023.6
20210417100021 51 17 9.0 12.0 0.00 0.00 0.00 57 1023.6
20210417095118 51 12 7.0 12.0 0.00 0.00 0.00 55 1023.6
20210417094039 52 10 8.0 12.0 0.00 0.00 0.00 56 1023.6
20210417093025 52 19 7.0 12.0 0.00 0.00 0.00 56 1023.6
20210417092127 51 9 10.0 14.0 0.00 0.00 0.00 57 1023.6
20210417091021 51 27 8.0 13.0 0.00 0.00 0.00 58 1023.7
20210417090031 51 9 8.0 12.0 0.00 0.00 0.00 57 1023.7
20210417085245 50 21 6.0 12.0 0.00 0.00 0.00 57 1023.8
20210417084021 50 37 5.0 12.0 0.00 0.00 0.00 56 1023.7
20210417083019 50 28 6.0 12.0 0.00 0.00 0.00 57 1023.6
20210417082101 49 22 6.0 13.0 0.00 0.00 0.00 56 1023.6
20210417081019 49 30 5.0 15.0 0.00 0.00 0.00 57 1023.6
20210417080026 49 26 6.0 12.0 0.00 0.00 0.00 58 1023.6
20210417075108 48 34 5.0 13.0 0.00 0.00 0.00 60 1023.6
20210417074022 47 40 7.0 12.0 0.00 0.00 0.00 61 1023.6
20210417073023 46 41 5.0 12.0 0.00 0.00 0.00 61 1023.6
20210417072147 46 53 5.0 15.0 0.00 0.00 0.00 62 1023.6
20210417071021 46 37 9.0 16.0 0.00 0.00 0.00 63 1023.6
20210417070025 45 24 9.0 13.0 0.00 0.00 0.00 64 1023.6
20210417065139 45 26 7.0 14.0 0.00 0.00 0.00 66 1023.6
20210417064023 45 26 7.0 12.0 0.00 0.00 0.00 68 1023.6
20210417063058 45 22 6.0 14.0 0.00 0.00 0.00 69 1023.6
20210417062130 45 33 7.0 12.0 0.00 0.00 0.00 70 1023.6
20210417061023 45 18 8.0 13.0 0.00 0.00 0.00 71 1023.6
20210417060144 44 13 9.0 15.0 0.00 0.00 0.00 70 1023.6
20210417055039 44 17 8.0 14.0 0.00 0.00 0.00 71 1023.6
20210417054035 44 24 9.0 14.0 0.00 0.00 0.00 71 1023.6
20210417053207 44 19 9.0 16.0 0.00 0.00 0.00 70 1023.6
20210417052240 44 12 11.0 16.0 0.00 0.00 0.00 70 1023.6
20210417051020 44 10 8.0 14.0 0.00 0.00 0.00 71 1023.6
20210417050036 44 8 9.0 13.0 0.00 0.00 0.00 70 1023.6
20210417045401 44 22 9.0 14.0 0.00 0.00 0.00 70 1023.5
20210417044027 44 13 7.0 14.0 0.00 0.00 0.00 68 1023.5
20210417043032 44 14 6.0 14.0 0.00 0.00 0.00 68 1023.5
20210417042124 44 22 9.0 14.0 0.00 0.00 0.00 67 1023.5
20210417041029 44 20 9.0 15.0 0.00 0.00 0.00 67 1023.5
20210417040030 44 12 9.0 15.0 0.00 0.00 0.00 66 1023.5
20210417035049 44 13 8.0 13.0 0.00 0.00 0.00 65 1023.5
20210417034021 44 22 9.0 13.0 0.00 0.00 0.00 64 1023.5
20210417033031 44 21 6.0 13.0 0.00 0.00 0.00 64 1023.6
20210417032045 44 21 7.0 13.0 0.00 0.00 0.00 63 1023.6
20210417031020 44 14 8.0 13.0 0.00 0.00 0.00 63 1023.6
20210417030034 44 18 6.0 12.0 0.00 0.00 0.00 61 1023.6
20210417025143 44 14 7.0 13.0 0.00 0.00 0.00 60 1023.6
20210417024020 44 5 6.0 14.0 0.00 0.00 0.00 60 1023.7
20210417023023 44 6 7.0 12.0 0.00 0.00 0.00 59 1023.7
20210417022150 44 14 6.0 12.0 0.00 0.00 0.00 58 1023.6
20210417021038 44 13 6.0 12.0 0.00 0.00 0.00 58 1023.7
20210417020020 44 14 8.0 13.0 0.00 0.00 0.00 58 1023.6
20210417015131 44 7 7.0 12.0 0.00 0.00 0.00 58 1023.7
20210417014024 44 16 8.0 12.0 0.00 0.00 0.00 57 1023.8
20210417013101 44 8 8.0 12.0 0.00 0.00 0.00 57 1023.8
20210417012333 44 11 6.0 13.0 0.00 0.00 0.00 57 1024.0
20210417011024 44 11 7.0 12.0 0.00 0.00 0.00 57 1024.0
20210417010139 45 7 6.0 12.0 0.00 0.00 0.00 57 1024.1
20210417005314 45 10 8.0 14.0 0.00 0.00 0.00 55 1024.1
20210417004035 45 16 7.0 12.0 0.00 0.00 0.00 54 1024.1
20210417003029 45 6 6.0 13.0 0.00 0.00 0.00 56 1024.1
20210417002216 45 15 6.0 13.0 0.00 0.00 0.00 55 1024.2
20210417001023 45 18 6.0 12.0 0.00 0.00 0.00 54 1024.3
20210417000130 45 17 6.0 10.0 0.00 0.00 0.00 53 1024.5
20210416235225 45 17 6.0 12.0 0.00 0.00 0.00 54 1024.6
20210416234028 46 26 9.0 16.0 0.00 0.00 0.00 53 1024.6
20210416233035 46 27 6.0 13.0 0.00 0.00 0.00 54 1024.6
20210416232219 46 28 6.0 12.0 0.00 0.00 0.00 56 1024.8
20210416231026 46 35 5.0 12.0 0.00 0.00 0.00 57 1024.8
20210416230147 46 28 6.0 13.0 0.00 0.00 0.00 55 1025.0
20210416225218 45 37 6.0 12.0 0.00 0.00 0.00 59 1025.0
20210416224027 46 23 7.0 12.0 0.00 0.00 0.00 59 1025.1
20210416223024 46 27 5.0 10.0 0.00 0.00 0.00 60 1025.1
20210416222317 46 23 7.0 12.0 0.00 0.00 0.00 63 1025.1
20210416221023 45 35 5.0 14.0 0.00 0.00 0.00 65 1025.2
20210416220044 45 33 6.0 12.0 0.00 0.00 0.00 71 1025.2
20210416215352 45 31 5.0 9.0 0.00 0.00 0.00 76 1025.2
20210416214024 45 36 4.0 6.0 0.00 0.00 0.00 78 1025.2
20210416213022 45 21 3.0 6.0 0.00 0.00 0.00 79 1025.2
20210416212236 45 31 3.0 6.0 0.00 0.00 0.00 79 1025.2
20210416211017 45 13 5.0 6.0 0.00 0.00 0.00 79 1025.2
20210416210025 45 36 2.0 7.0 0.00 0.00 0.00 79 1025.2
20210416205044 45 34 2.0 6.0 0.00 0.00 0.00 80 1025.3
20210416204022 45 34 3.0 6.0 0.00 0.00 0.00 81 1025.3
20210416203038 45 24 3.0 5.0 0.00 0.00 0.00 81 1025.4
20210416202207 45 24 3.0 7.0 0.00 0.00 0.00 80 1025.5
20210416201020 45 1 5.0 9.0 0.00 0.00 0.00 80 1025.5
20210416200110 45 15 5.0 9.0 0.00 0.00 0.00 80 1025.5
20210416195451 45 9 5.0 10.0 0.00 0.00 0.00 80 1025.4
20210416194044 45 4 6.0 9.0 0.00 0.00 0.00 79 1025.3
20210416193327 45 8 6.0 9.0 0.00 0.00 0.00 79 1025.3
20210416192828 45 4 6.0 12.0 0.00 0.00 0.00 78 1025.3
20210416191023 45 8 7.0 12.0 0.00 0.00 0.00 77 1025.3
20210416190126 45 4 7.0 10.0 0.00 0.00 0.00 75 1025.1
20210416185028 45 4 5.0 14.0 0.00 0.00 0.00 74 1025.2
20210416184019 45 5 7.0 14.0 0.00 0.00 0.00 73 1025.2
20210416183028 45 6 9.0 12.0 0.00 0.00 0.00 72 1025.2
20210416182401 45 359 5.0 12.0 0.00 0.00 0.00 71 1025.1
20210416181031 45 3 9.0 13.0 0.00 0.00 0.00 69 1025.1
20210416180025 45 357 10.0 15.0 0.00 0.00 0.00 68 1025.1
20210416175108 45 357 10.0 17.0 0.00 0.00 0.00 65 1025.1
20210416174022 45 354 11.0 16.0 0.00 0.00 0.00 64 1025.1
20210416173020 45 345 12.0 16.0 0.00 0.00 0.00 63 1025.2
20210416172257 46 349 11.0 17.0 0.00 0.00 0.00 62 1025.2
20210416171020 46 354 12.0 17.0 0.00 0.00 0.00 61 1025.2
20210416170058 46 356 13.0 20.0 0.00 0.00 0.00 60 1025.2
20210416165137 46 346 9.0 17.0 0.00 0.00 0.00 61 1025.2
20210416164025 46 351 13.0 18.0 0.00 0.00 0.00 60 1025.2
20210416163030 47 355 14.0 21.0 0.00 0.00 0.00 59 1025.2
20210416162058 47 355 11.0 18.0 0.00 0.00 0.00 60 1025.2
20210416161019 48 339 13.0 20.0 0.00 0.00 0.00 59 1025.2
20210416160032 48 3 13.0 18.0 0.00 0.00 0.00 60 1025.2
20210416155134 48 336 14.0 20.0 0.00 0.00 0.00 58 1025.2
20210416154018 48 336 13.0 18.0 0.00 0.00 0.00 59 1025.2
20210416153023 48 338 13.0 17.0 0.00 0.00 0.00 58 1025.2
20210416152112 48 344 13.0 17.0 0.00 0.00 0.00 58 1025.3
20210416151030 48 340 12.0 18.0 0.00 0.00 0.00 58 1025.4